Temp
88 96 100 94 77 73 68 78 89 83 84 92 92 89 85 85 80 68 93 91 87 90 86 89 83 84 83 83 84 84 84 84 84 84 84 84 84 84 83 83 84 84 84 84 84 84 84 84 84
102 98 96 88 72 61 67 84 78 86 89 93 90 89 87 82 90 91 89 93 93 89 90 87 82 83 83 83 84 84 84 84 84 84 84 84 84 84 83 83 83 83 83 84 84 84 84 84 84
98 97 86 80 74 66 64 78 84 85 90 90 87 92 89 82 90 86 93 94 94 94 93 84 83 84 84 84 84 84 84 84 84 84 84 84 84 83 80 83 83 83 83 84 84 84 84 84 84
97 92 90 75 64 78 73 82 83 85 89 91 90 84 89 95 88 89 98 94 91 91 90 85 83 84 84 84 84 84 84 84 84 84 84 84 84 83 83 83 84 84 84 84 84 84 84 84 84
99 91 69 73 73 78 82 82 79 75 85 87 89 84 84 92 92 94 96 98 95 92 90 91 83 84 84 84 84 84 84 84 84 84 84 84 82 82 83 83 84 84 84 84 84 84 84 84 84
82 92 66 65 71 75 78 82 81 75 88 87 87 86 82 92 88 91 98 96 96 93 91 92 84 83 84 84 84 84 84 84 84 84 84 82 81 80 82 84 84 85 84 84 84 84 84 84 84
85 79 75 75 74 72 76 82 79 79 87 87 91 84 86 84 91 89 90 95 95 93 88 90 93 87 83 83 84 84 84 84 84 84 83 83 81 81 82 84 85 85 84 84 84 84 84 84 83
91 86 73 74 72 70 81 80 81 84 83 94 94 80 81 84 89 89 89 93 86 88 89 90 88 89 88 87 84 84 83 83 84 84 83 83 82 82 82 83 85 85 84 84 84 84 84 83 83
95 70 67 74 75 71 83 81 84 86 87 89 91 92 93 92 89 86 86 87 89 82 84 92 94 86 85 88 87 84 83 83 83 83 83 82 81 85 88 85 85 85 84 84 83 83 83 83 82
90 72 77 85 82 80 83 81 78 80 84 86 88 93 94 95 86 84 86 84 86 84 83 87 86 87 89 87 86 85 86 87 87 85 80 82 78 86 83 89 85 85 85 84 84 83 83 83 91
87 77 85 85 84 85 81 82 84 78 79 86 86 88 91 92 88 88 86 86 87 88 82 87 86 86 85 84 81 81 86 78 84 80 78 79 86 89 92 93 92 90 86 84 85 88 87 94 92
80 86 86 84 85 83 80 84 78 73 72 94 93 93 93 92 88 94 93 92 90 86 85 83 85 84 83 82 83 82 85 80 78 84 78 77 82 88 87 82 84 86 85 89 90 91 92 93 93
84 86 87 85 85 85 85 82 79 73 89 95 94 92 92 93 94 95 96 95 92 89 85 87 87 84 83 81 79 85 83 81 83 86 79 85 79 87 88 91 86 82 93 86 92 94 92 91 91
87 85 87 87 84 85 80 79 83 82 90 91 91 91 93 93 93 92 93 92 91 91 90 89 84 84 84 80 79 79 86 84 85 86 82 83 81 87 86 92 85 85 84 87 93 92 83 88 87
89 82 87 86 84 81 84 74 74 81 86 88 89 92 92 93 94 92 93 92 93 93 91 90 85 84 83 81 81 81 83 86 82 90 81 83 80 89 85 86 80 85 85 88 89 89 92 92 96
85 84 71 83 83 83 83 65 81 78 78 85 86 90 90 91 93 94 95 95 94 93 89 91 89 85 83 80 76 83 82 88 88 87 91 80 85 90 90 89 96 94 94 88 90 94 91 93 93
84 72 77 75 85 83 81 74 82 85 84 78 86 84 91 88 91 94 95 95 94 92 89 90 88 83 85 82 75 82 84 85 88 82 86 78 86 91 86 86 93 92 91 96 94 95 92 93 93
75 80 80 75 81 82 79 79 82 82 80 82 82 85 90 88 88 92 95 95 96 93 90 90 89 82 84 81 80 80 86 88 91 82 81 79 89 93 91 95 93 92 89 95 94 91 93 93 92
85 83 78 82 86 81 80 79 81 85 83 77 83 84 89 91 89 93 94 94 95 93 89 88 84 85 85 77 77 81 84 86 87 91 88 91 92 92 91 95 93 95 93 91 92 93 90 92 93
85 82 81 84 85 83 82 82 87 88 85 86 84 87 88 91 87 90 92 92 93 92 89 87 87 85 86 84 85 86 84 88 90 92 91 93 91 92 93 91 87 88 93 90 90 89 93 92 91
84 82 82 79 85 87 83 79 82 88 89 89 89 89 90 91 91 89 93 94 94 92 89 87 86 85 86 87 86 87 87 72 77 87 91 90 91 93 91 92 91 92 91 90 91 91 88 90 91
80 88 84 82 81 72 69 70 66 86 86 87 89 90 91 93 93 93 92 95 95 93 93 89 87 86 87 88 86 85 86 86 90 92 93 88 92 93 94 93 92 91 94 91 92 94 91 88 91
83 87 84 83 81 81 82 76 68 86 83 86 90 91 93 94 92 92 93 94 97 96 94 92 87 86 87 86 82 86 85 77 93 94 87 91 90 92 94 93 92 91 93 91 90 90 89 93 92
90 84 84 85 82 71 79 78 69 77 83 88 93 94 94 95 89 95 96 96 95 96 96 93 88 85 87 85 84 84 86 85 78 89 90 92 93 93 91 93 92 91 92 91 91 91 89 88 90
88 82 71 68 69 65 83 79 82 84 91 91 92 95 96 96 92 94 93 94 92 94 94 93 87 84 86 86 85 86 85 86 86 85 91 91 94 95 90 90 91 92 89 91 90 88 87 90 89
83 84 74 62 67 72 82 74 81 93 96 96 95 96 98 97 96 96 95 94 92 91 93 93 88 85 86 87 86 86 86 89 89 88 92 94 89 96 92 91 92 91 91 91 90 90 91 91 91
84 78 89 80 82 75 79 83 91 92 93 94 94 94 94 96 96 96 96 93 92 92 92 92 89 87 87 88 86 85 85 86 87 84 88 90 92 92 91 93 91 91 91 90 90 91 90 90 89
87 92 78 80 64 63 73 77 74 82 87 91 92 93 93 96 96 97 95 93 93 93 93 94 92 88 89 90 89 87 87 88 88 90 89 89 87 88 90 91 91 91 91 90 89 90 91 89 91
84 82 83 85 81 70 67 69 73 86 89 90 93 94 94 95 95 96 96 95 94 95 93 93 91 89 82 91 89 86 89 89 89 90 89 88 89 88 89 88 89 89 90 88 86 88 88 86 88
90 85 85 75 71 78 76 76 89 91 93 93 92 94 95 96 96 97 97 96 95 93 89 89 83 87 89 91 90 86 90 87 91 90 91 91 89 87 85 86 87 87 88 88 86 85 89 87 87
MSLP
1009.32 1008.49 1007.58 1006.81 1006.16 1005.24 1004.57 1003.33 1002.68 1002.99 1003.31 1003.61 1004.48 1004.45 1004.98 1006.09 1006.47 1008.20 1009.44 1011.13 1011.83 1012.19 1013.04 1013.23 1013.97 1014.07 1014.15 1014.24 1014.41 1014.59 1014.72 1014.87 1015.04 1015.29 1015.43 1015.52 1015.62 1015.72 1015.90 1016.09 1016.18 1016.17 1016.24 1016.31 1016.42 1016.43 1016.52 1016.60 1016.66
1007.24 1007.59 1007.04 1006.25 1005.60 1005.40 1004.60 1003.68 1003.85 1003.88 1004.17 1004.47 1004.99 1004.97 1005.08 1006.26 1007.60 1008.33 1009.64 1010.82 1011.56 1012.48 1012.89 1013.39 1014.01 1014.20 1014.40 1014.45 1014.69 1014.88 1015.01 1015.05 1015.17 1015.34 1015.56 1015.77 1015.89 1016.08 1016.15 1016.33 1016.38 1016.31 1016.27 1016.43 1016.51 1016.48 1016.63 1016.69 1016.76
1008.13 1007.72 1006.49 1005.39 1005.07 1005.64 1005.48 1004.97 1004.76 1005.30 1004.83 1004.39 1004.94 1005.45 1005.81 1006.96 1008.13 1009.39 1009.69 1010.57 1011.05 1011.57 1012.38 1013.92 1014.27 1014.32 1014.56 1014.69 1014.86 1015.05 1015.22 1015.29 1015.35 1015.50 1015.72 1015.99 1016.11 1016.38 1016.49 1016.54 1016.50 1016.47 1016.43 1016.53 1016.60 1016.73 1016.79 1016.86 1016.90
1007.19 1006.70 1006.35 1005.76 1006.21 1005.50 1006.20 1005.76 1006.09 1005.64 1005.31 1005.41 1005.40 1005.78 1007.37 1007.76 1008.95 1009.92 1009.90 1010.76 1011.59 1011.88 1012.31 1013.91 1014.28 1014.40 1014.57 1014.77 1014.91 1015.11 1015.25 1015.41 1015.42 1015.55 1015.80 1016.07 1016.35 1016.68 1016.56 1016.61 1016.69 1016.68 1016.65 1016.72 1016.80 1016.85 1016.92 1016.93 1017.13
1006.34 1005.57 1005.88 1005.68 1005.93 1006.21 1006.55 1006.84 1007.32 1006.86 1005.60 1005.61 1005.79 1005.89 1007.31 1008.53 1009.64 1009.82 1010.09 1010.44 1010.92 1011.57 1012.59 1013.52 1014.38 1014.56 1014.72 1014.85 1015.01 1015.13 1015.34 1015.51 1015.64 1015.75 1015.97 1016.21 1016.62 1016.69 1016.64 1016.79 1016.77 1016.81 1016.94 1016.94 1016.97 1016.91 1017.03 1017.07 1017.20
1005.93 1005.17 1005.93 1005.93 1006.19 1007.29 1007.64 1007.44 1007.46 1007.29 1005.64 1006.17 1005.94 1006.37 1008.33 1009.20 1010.04 1010.18 1010.10 1010.51 1010.85 1011.65 1011.98 1013.28 1014.39 1014.66 1014.83 1015.07 1015.20 1015.30 1015.54 1015.71 1015.86 1015.91 1016.10 1016.52 1016.72 1016.76 1016.80 1016.91 1016.91 1016.94 1017.05 1017.04 1017.03 1017.06 1017.10 1017.17 1017.30
1005.50 1005.20 1005.18 1005.55 1006.21 1007.25 1007.59 1008.05 1007.58 1007.07 1005.69 1005.85 1006.17 1005.94 1008.30 1009.81 1010.20 1010.99 1011.15 1011.11 1011.20 1011.56 1012.47 1012.75 1013.49 1014.43 1014.87 1015.05 1015.20 1015.30 1015.54 1015.75 1015.88 1016.04 1016.34 1016.57 1016.72 1017.04 1017.06 1017.05 1017.03 1017.14 1017.17 1017.19 1017.13 1017.19 1017.22 1017.35 1017.40
1005.57 1005.03 1005.40 1005.84 1005.93 1006.81 1007.33 1007.93 1008.03 1007.05 1006.37 1006.36 1006.33 1006.17 1007.81 1009.90 1010.57 1011.28 1011.54 1011.60 1012.26 1012.44 1012.53 1012.71 1013.30 1013.85 1014.36 1014.87 1015.20 1015.39 1015.60 1015.82 1016.07 1016.18 1016.49 1016.71 1016.98 1017.19 1017.19 1017.21 1017.16 1017.27 1017.25 1017.36 1017.36 1017.37 1017.43 1017.51 1017.42
1005.53 1005.51 1005.28 1005.52 1005.78 1006.88 1007.32 1007.42 1007.96 1007.76 1006.69 1006.69 1006.76 1006.42 1007.57 1009.41 1010.70 1011.30 1011.67 1012.16 1012.32 1013.12 1013.15 1012.37 1012.85 1013.80 1013.94 1014.18 1014.96 1015.49 1015.78 1015.99 1016.27 1016.51 1016.76 1016.98 1017.11 1017.10 1016.79 1017.11 1017.13 1017.30 1017.41 1017.46 1017.58 1017.51 1017.46 1017.53 1017.46
1004.44 1005.06 1005.01 1005.32 1006.04 1005.95 1006.83 1007.62 1008.11 1007.88 1006.82 1006.86 1007.04 1007.57 1008.43 1009.04 1010.51 1010.97 1011.03 1011.61 1012.24 1012.79 1013.33 1013.37 1013.45 1013.38 1013.97 1014.58 1015.01 1015.26 1015.57 1015.76 1015.97 1016.70 1017.14 1017.19 1017.20 1016.97 1017.05 1016.42 1017.04 1017.16 1017.30 1017.40 1017.43 1017.32 1017.27 1017.21 1016.42
1004.33 1004.77 1005.30 1005.52 1006.41 1006.31 1006.64 1006.98 1007.98 1007.65 1006.83 1006.20 1006.92 1007.76 1008.42 1008.82 1009.74 1010.04 1010.57 1011.00 1011.85 1012.48 1013.19 1013.17 1013.87 1013.77 1014.16 1014.59 1015.16 1015.62 1015.72 1016.31 1016.37 1017.10 1017.28 1017.17 1016.93 1016.49 1015.89 1015.74 1015.98 1016.18 1016.76 1016.81 1017.10 1016.78 1016.57 1015.81 1015.56
1004.40 1005.07 1005.68 1006.14 1006.47 1006.51 1006.91 1007.10 1007.77 1008.78 1008.39 1006.15 1006.91 1007.65 1008.08 1008.37 1009.27 1009.00 1009.67 1010.42 1011.34 1012.55 1013.24 1013.73 1013.74 1014.05 1014.37 1014.76 1015.00 1015.30 1015.81 1016.66 1016.93 1016.85 1017.31 1017.29 1017.03 1016.23 1015.25 1015.83 1015.52 1015.34 1015.62 1016.02 1016.11 1015.66 1015.94 1015.91 1015.81
1003.97 1004.90 1005.48 1006.31 1006.54 1006.55 1007.01 1006.98 1007.50 1008.46 1007.03 1006.89 1007.24 1007.74 1007.87 1007.88 1008.26 1008.81 1009.40 1010.37 1011.24 1011.90 1013.12 1013.31 1013.65 1014.30 1014.55 1015.01 1015.38 1015.31 1015.86 1016.63 1016.66 1016.74 1017.21 1017.00 1017.19 1016.48 1015.51 1015.32 1015.18 1015.61 1014.93 1016.10 1016.18 1015.61 1015.76 1015.68 1015.45
1003.98 1005.08 1005.19 1005.61 1006.35 1006.53 1007.09 1007.65 1007.61 1007.68 1007.10 1007.15 1007.55 1007.46 1007.61 1008.05 1008.53 1009.34 1009.74 1010.43 1011.15 1011.66 1012.39 1013.30 1014.07 1014.38 1014.53 1015.16 1015.52 1015.71 1015.62 1015.83 1016.46 1016.34 1017.09 1017.16 1017.21 1016.52 1015.78 1015.19 1014.99 1015.27 1015.95 1016.37 1016.21 1015.86 1016.27 1015.30 1015.16
1004.42 1004.45 1004.36 1005.07 1005.91 1006.33 1006.68 1007.67 1007.93 1008.13 1007.66 1007.41 1007.39 1007.20 1007.47 1008.02 1008.69 1009.33 1009.80 1010.47 1011.02 1011.49 1012.44 1012.91 1014.08 1014.60 1014.89 1015.29 1015.45 1015.51 1015.59 1015.62 1015.76 1015.80 1016.83 1016.89 1017.21 1016.05 1015.66 1014.89 1015.59 1015.62 1016.30 1016.49 1016.36 1016.25 1015.55 1015.09 1014.61
1003.80 1004.17 1003.97 1004.68 1005.64 1006.11 1006.58 1006.56 1007.06 1008.28 1008.20 1007.53 1007.58 1007.01 1007.58 1008.03 1008.46 1009.03 1009.68 1010.13 1010.92 1011.54 1012.64 1012.69 1013.61 1014.55 1014.94 1015.67 1016.05 1015.82 1015.34 1015.44 1015.45 1016.32 1016.02 1016.99 1016.88 1015.96 1015.02 1014.89 1014.89 1015.52 1015.39 1016.01 1016.02 1015.41 1015.05 1014.72 1014.61
1002.82 1002.83 1002.99 1004.10 1004.88 1005.28 1005.89 1005.33 1006.25 1007.41 1007.63 1007.72 1007.19 1007.46 1007.15 1008.06 1008.42 1008.89 1009.50 1010.10 1010.84 1011.60 1012.67 1012.90 1013.73 1014.53 1014.79 1015.47 1016.21 1016.09 1016.12 1016.21 1015.84 1016.58 1016.46 1016.97 1016.63 1015.97 1015.19 1014.87 1015.25 1015.54 1015.00 1015.18 1014.77 1015.08 1015.07 1015.08 1014.67
1002.23 1001.46 1002.37 1003.27 1004.07 1004.78 1004.63 1004.82 1005.32 1006.76 1007.37 1007.07 1007.54 1007.56 1006.85 1007.49 1008.21 1008.49 1008.99 1009.80 1010.53 1011.58 1012.57 1012.96 1013.54 1014.71 1014.96 1015.65 1016.17 1016.45 1016.18 1015.89 1015.62 1016.26 1016.29 1016.55 1015.95 1015.69 1015.28 1014.54 1015.20 1014.55 1014.39 1015.00 1015.36 1015.58 1015.61 1015.37 1015.03
1001.81 1001.94 1001.90 1002.47 1003.27 1003.84 1003.53 1003.64 1003.97 1004.99 1006.20 1006.93 1006.82 1007.00 1006.19 1006.39 1007.55 1008.27 1008.62 1009.58 1010.16 1011.35 1012.38 1013.04 1013.76 1014.57 1014.91 1015.88 1016.13 1016.06 1015.83 1015.50 1015.79 1015.24 1015.78 1015.66 1015.50 1015.82 1015.74 1014.71 1015.08 1013.73 1014.08 1015.70 1015.92 1015.61 1015.75 1015.40 1015.46
1001.85 1001.43 1001.27 1001.92 1002.82 1003.05 1002.56 1002.09 1002.38 1002.98 1004.33 1004.92 1005.78 1005.47 1005.54 1005.60 1006.92 1007.67 1008.20 1009.12 1009.79 1010.89 1012.08 1012.99 1013.52 1014.47 1014.57 1015.16 1015.09 1015.30 1015.77 1015.39 1014.94 1014.93 1015.34 1015.47 1015.80 1015.89 1015.59 1014.98 1015.05 1014.51 1014.92 1016.05 1016.24 1016.05 1015.25 1015.31 1015.51
1001.49 1001.04 1000.70 1001.54 1001.63 1001.71 1002.05 1001.09 1001.02 1001.58 1002.55 1003.52 1004.49 1004.72 1004.90 1004.90 1005.70 1006.84 1007.19 1008.02 1009.16 1010.21 1011.53 1012.63 1013.44 1014.05 1014.36 1014.39 1014.97 1015.13 1015.10 1015.26 1015.18 1014.70 1015.21 1015.79 1015.69 1015.71 1015.93 1015.50 1015.33 1015.54 1015.57 1015.73 1016.15 1016.10 1015.81 1015.22 1015.16
1000.42 1000.76 1001.26 1001.46 1000.90 1001.22 1003.44 1000.82 1000.81 999.91 1000.88 1001.90 1002.85 1003.69 1003.86 1004.19 1004.92 1005.68 1006.63 1007.35 1008.25 1009.47 1010.84 1012.09 1013.04 1013.67 1014.19 1014.37 1014.65 1014.65 1014.61 1014.19 1014.22 1014.21 1014.62 1015.24 1015.38 1015.46 1015.52 1015.77 1015.81 1016.04 1015.63 1015.92 1016.05 1015.94 1015.93 1015.57 1014.62
1000.69 1001.20 1001.58 1001.33 1000.59 999.69 999.49 999.60 1000.35 999.76 999.68 1000.09 1000.92 1001.69 1002.75 1003.47 1004.17 1004.97 1005.82 1006.73 1007.51 1008.85 1010.04 1011.32 1012.58 1013.24 1013.64 1014.21 1015.05 1014.98 1014.63 1014.77 1013.82 1013.79 1014.60 1014.81 1015.29 1015.38 1015.54 1015.62 1015.95 1016.13 1015.97 1016.07 1016.16 1016.21 1016.20 1015.65 1015.06
1001.06 1001.45 1001.16 1000.63 999.97 998.99 998.43 998.93 999.28 999.27 998.81 998.60 999.11 1000.11 1001.16 1002.40 1004.23 1004.29 1005.17 1006.11 1007.13 1008.29 1009.37 1010.56 1012.00 1012.87 1013.33 1014.19 1014.72 1014.81 1014.48 1014.63 1014.47 1014.06 1014.30 1014.67 1014.72 1015.27 1015.59 1015.55 1015.88 1016.03 1015.97 1016.03 1016.18 1016.26 1016.29 1016.21 1015.84
1000.54 1000.70 999.55 999.01 998.48 998.60 997.76 998.01 997.05 998.27 998.09 998.22 998.49 998.95 999.96 1001.01 1003.16 1003.67 1004.85 1005.84 1006.92 1007.67 1008.84 1009.87 1011.48 1012.43 1013.05 1013.54 1014.12 1014.46 1014.60 1014.46 1014.32 1014.43 1014.08 1013.90 1013.75 1013.94 1014.73 1015.45 1015.77 1015.76 1015.98 1015.91 1016.05 1016.39 1016.44 1016.13 1016.01
1000.08 999.71 998.24 997.53 996.97 996.87 997.28 996.80 996.70 996.98 997.19 997.84 998.37 998.60 999.11 1000.19 1001.48 1002.63 1003.98 1005.20 1006.49 1007.56 1008.52 1009.31 1010.78 1011.95 1012.61 1013.10 1013.56 1014.08 1014.43 1014.31 1014.38 1014.52 1013.89 1013.86 1013.86 1013.60 1014.17 1015.01 1015.28 1015.59 1015.61 1015.70 1015.89 1016.15 1016.19 1015.98 1015.97
998.82 999.05 998.62 997.66 997.05 996.73 996.55 996.35 996.24 996.82 997.05 997.43 998.04 998.64 999.16 999.86 1001.00 1002.28 1003.24 1005.07 1006.52 1007.42 1008.38 1009.16 1010.25 1011.44 1012.11 1012.61 1013.31 1013.81 1014.16 1014.25 1013.84 1014.25 1014.30 1014.28 1014.04 1013.97 1014.32 1014.66 1015.09 1015.37 1015.44 1015.59 1015.72 1015.82 1015.74 1015.89 1016.02
998.89 998.16 998.31 997.88 997.44 996.80 996.12 996.26 996.82 997.03 996.94 997.29 997.88 998.56 999.40 999.91 1000.76 1001.72 1002.95 1004.60 1006.14 1007.23 1008.21 1008.89 1009.87 1010.89 1011.42 1011.84 1012.71 1013.29 1013.52 1013.80 1013.91 1013.84 1014.07 1014.08 1014.19 1014.33 1014.41 1014.62 1014.93 1015.15 1015.31 1015.42 1015.65 1015.50 1015.33 1015.69 1015.61
998.22 998.09 997.90 997.24 996.58 996.16 996.02 997.23 998.37 996.96 997.02 997.08 997.43 998.51 999.44 999.93 1000.54 1001.42 1002.51 1003.94 1005.35 1006.40 1007.67 1008.42 1009.40 1010.40 1010.91 1011.28 1011.86 1012.83 1012.76 1013.06 1013.60 1013.66 1013.90 1014.23 1014.37 1014.54 1014.56 1014.83 1014.82 1014.90 1014.98 1015.41 1015.57 1015.37 1015.22 1015.66 1015.51
997.32 997.24 997.60 997.05 997.04 996.81 996.17 996.10 996.96 997.24 996.95 997.17 997.48 998.60 999.25 999.87 1000.55 1001.25 1002.14 1003.40 1004.79 1005.97 1007.59 1008.58 1009.26 1010.23 1010.57 1010.63 1011.24 1012.34 1012.30 1012.53 1012.61 1013.05 1013.13 1013.44 1013.78 1014.22 1014.65 1014.62 1014.63 1014.82 1014.79 1014.99 1015.24 1015.46 1014.84 1015.04 1014.93
Wind_Speed
10 12 6 6 6 4 4 4 4 9 6 8 10 12 12 14 12 6 15 16 12 15 11 14 12 11 12 12 12 13 13 12 12 11 11 10 9 8 9 4 5 7 8 9 9 9 9 8 8
11 1 7 5 5 1 4 4 13 12 9 10 6 2 10 16 13 16 12 19 17 15 11 10 12 13 11 12 11 12 12 12 12 11 10 9 9 9 7 3 4 7 7 9 8 9 9 8 8
15 4 7 6 6 3 4 12 11 6 2 3 5 5 7 8 8 6 14 18 15 16 16 13 12 12 11 11 10 10 10 10 11 10 10 9 10 12 1 5 6 7 6 7 7 7 8 7 8
5 6 5 3 2 7 3 10 8 7 8 6 3 11 9 10 10 9 15 19 13 10 12 15 12 11 10 10 9 10 9 10 9 9 9 8 11 12 4 6 7 5 6 5 5 6 6 6 5
10 6 2 5 2 3 7 10 4 5 3 6 5 9 11 7 10 13 13 14 16 17 16 15 11 11 10 9 8 9 9 9 9 9 10 11 13 9 7 6 6 5 4 5 4 5 6 5 5
3 2 4 0 5 4 3 1 0 4 2 6 5 6 10 5 8 9 13 12 11 9 12 15 12 11 10 9 9 10 10 9 9 11 13 14 14 6 4 6 5 5 3 4 4 5 5 6 5
6 4 7 6 5 4 5 6 4 8 4 11 1 4 11 8 10 8 6 5 3 12 10 13 14 11 10 9 9 9 9 9 9 11 14 16 13 9 5 5 5 5 4 4 3 6 6 5 4
8 7 2 5 3 5 6 5 3 7 5 5 4 5 13 12 10 10 7 7 6 2 2 10 7 12 11 11 9 9 8 9 10 11 14 11 11 10 5 6 7 5 4 4 3 4 4 4 5
7 2 4 5 6 2 7 7 4 6 4 8 3 5 17 19 15 10 8 6 9 3 4 5 14 9 5 9 10 9 10 11 12 11 10 8 4 8 8 8 8 5 4 5 4 4 6 6 7
8 3 9 8 8 2 11 9 6 7 9 10 9 15 13 15 14 11 9 12 8 7 6 3 4 3 9 7 9 8 8 7 7 8 5 3 4 6 7 10 7 6 6 8 8 8 9 11 8
0 5 9 10 8 2 5 11 9 6 11 11 13 13 13 12 12 16 15 12 11 7 7 10 5 6 7 7 5 5 5 2 6 6 1 4 6 7 8 7 8 7 12 6 9 9 9 7 4
2 4 7 6 2 3 5 8 7 7 10 12 13 13 11 12 11 10 10 9 11 10 5 6 6 4 7 5 6 6 7 6 2 7 4 2 3 5 4 5 6 8 5 5 2 1 4 2 4
1 7 4 5 3 5 2 5 2 19 11 13 14 12 11 9 8 8 9 11 8 12 9 2 8 6 6 8 5 7 7 8 7 8 4 6 3 4 4 3 3 10 7 4 1 0 2 5 4
3 3 5 4 4 5 4 2 4 5 2 12 12 12 11 10 9 7 8 8 9 7 12 11 6 6 8 7 8 6 8 7 10 8 6 4 1 6 6 4 5 4 6 3 2 3 2 4 4
4 10 9 5 4 4 7 8 8 4 6 8 11 11 12 10 10 11 9 8 11 8 7 10 9 8 7 8 8 5 7 7 3 8 7 5 4 8 8 4 2 6 5 4 2 2 6 6 6
10 6 6 8 6 5 11 6 14 11 13 11 14 12 11 11 12 9 10 9 10 13 7 4 13 11 10 11 4 3 1 6 5 5 4 4 6 5 7 3 6 4 6 8 7 4 6 2 4
8 8 5 8 7 3 9 2 19 17 13 10 10 8 14 9 11 9 13 8 10 13 8 7 12 8 9 10 5 3 5 2 7 2 3 3 6 5 8 3 8 5 3 2 2 3 3 2 3
9 9 6 4 9 6 7 8 10 14 14 14 12 15 14 16 12 13 12 12 12 12 11 8 8 10 8 8 5 4 5 6 6 4 4 4 9 4 7 6 4 10 3 5 6 6 4 3 5
8 11 3 5 5 6 9 9 11 16 17 13 16 17 17 16 14 12 12 11 14 13 12 11 9 10 9 6 6 6 8 5 4 6 7 8 3 4 5 3 6 7 9 6 1 4 2 4 1
12 13 8 4 5 8 12 11 11 16 17 19 21 19 17 17 12 15 14 15 14 14 13 13 12 12 9 10 7 7 5 7 8 8 8 5 4 3 4 6 6 2 9 4 3 4 1 3 3
14 14 7 6 9 12 12 17 15 15 17 18 18 17 17 17 21 19 17 17 15 16 15 14 14 14 11 8 7 6 5 6 2 6 8 8 9 7 6 3 5 3 7 7 1 3 4 5 2
17 6 5 11 13 2 21 8 14 15 17 19 21 19 19 18 17 18 17 17 16 16 15 16 15 15 12 10 7 8 7 6 5 7 8 6 8 7 6 5 3 3 4 4 4 3 3 7 3
15 5 8 11 14 17 13 9 5 9 12 14 20 23 22 19 16 18 17 17 17 16 16 16 16 14 13 11 10 8 10 3 6 5 11 5 6 4 6 5 4 3 6 5 3 1 3 2 5
7 8 12 14 13 12 10 10 13 11 3 9 15 18 22 23 18 20 18 18 16 17 16 17 16 15 14 12 12 12 9 7 5 6 8 8 9 9 8 5 5 4 5 3 4 3 3 5 5
16 15 14 12 11 9 9 4 3 7 10 5 9 13 18 22 26 22 19 17 17 19 17 17 17 15 15 15 14 12 10 7 6 7 6 6 8 8 12 8 5 6 7 5 4 3 6 4 5
13 19 15 8 9 4 11 6 4 6 5 5 5 5 11 19 20 22 23 20 18 14 17 17 18 16 16 15 13 11 10 8 7 8 7 8 4 6 12 9 6 7 7 6 6 6 7 7 5
18 17 19 19 15 12 9 7 7 9 3 11 7 5 7 16 18 20 22 18 19 18 18 16 16 15 15 15 12 11 11 11 7 7 9 7 7 3 4 6 7 8 7 8 7 7 5 6 6
22 13 12 12 12 12 9 10 10 7 2 10 10 9 7 13 18 20 19 21 20 19 18 17 17 16 16 15 13 11 12 12 10 6 7 7 4 5 4 6 9 9 9 8 8 8 8 7 7
17 19 15 19 13 9 11 8 4 8 2 10 11 9 9 10 15 17 18 21 20 20 20 17 17 16 7 15 13 11 13 13 12 11 11 10 9 7 8 8 8 9 8 8 7 8 8 7 8
22 22 21 13 15 11 14 6 14 10 4 5 9 8 5 5 13 15 18 20 18 15 14 15 12 16 16 14 12 12 13 10 14 13 12 11 10 10 10 10 10 10 10 9 11 10 12 10 9
Wind_Direction
192 211 262 256 249 190 103 91 74 112 105 60 57 15 60 50 14 70 128 125 130 124 131 148 144 133 126 124 123 121 117 113 109 104 105 107 106 99 93 105 117 111 116 121 127 130 130 127 123
241 281 238 278 246 353 330 84 76 74 83 85 74 286 83 78 72 115 121 132 151 139 130 139 140 141 139 128 122 118 116 113 110 107 103 105 104 99 81 113 121 118 127 123 126 124 123 118 121
257 282 274 272 280 103 287 73 91 80 106 137 121 30 7 84 98 74 131 142 145 149 147 124 138 141 141 136 132 120 115 118 116 115 109 105 104 104 149 129 116 122 114 114 115 116 117 117 115
236 208 235 253 113 45 346 80 24 86 81 23 14 96 111 41 62 139 148 134 128 134 120 130 143 140 138 132 132 125 120 113 114 110 109 108 104 98 113 128 113 125 113 113 115 118 127 119 117
235 259 119 299 42 59 72 84 65 286 55 77 312 99 85 100 119 141 148 157 160 149 139 139 153 150 146 137 137 125 121 114 111 110 110 111 109 113 128 139 135 121 124 134 140 138 135 134 135
250 246 259 326 96 135 108 59 77 255 109 105 111 110 101 145 126 134 152 157 133 135 124 137 150 152 153 158 145 137 132 123 118 104 113 105 97 59 159 165 142 121 127 136 149 163 159 143 130
306 301 312 60 50 152 178 183 185 286 101 68 115 109 103 126 156 124 97 108 75 132 140 124 162 156 159 164 158 144 134 120 114 116 124 123 126 154 214 165 137 119 121 109 134 163 158 148 132
274 270 292 319 30 138 119 129 292 262 36 106 306 133 146 141 138 147 109 131 103 130 106 135 131 160 172 156 163 147 135 124 114 119 129 121 145 172 207 182 138 127 119 134 134 161 152 153 138
275 178 294 15 13 210 149 184 145 327 188 39 76 52 111 137 137 150 151 136 161 70 196 225 162 157 133 153 154 152 140 131 117 115 127 143 152 195 184 134 130 135 142 140 111 158 167 169 157
264 356 15 356 354 297 153 175 189 192 181 124 109 95 123 141 148 163 161 164 169 162 202 165 320 188 156 160 171 161 149 154 145 117 121 205 159 213 284 129 154 169 181 182 178 184 210 207 179
14 12 355 33 359 13 153 175 176 239 219 165 133 135 145 151 156 166 170 156 151 158 182 169 184 187 179 161 168 144 143 79 117 130 82 225 190 206 208 150 182 183 196 194 197 213 219 213 300
139 59 354 19 65 100 149 141 207 63 298 98 130 142 150 165 165 155 123 110 128 137 115 152 145 139 169 147 158 162 134 123 138 151 149 270 223 242 278 14 205 175 193 149 264 227 47 158 250
83 27 20 55 164 153 164 175 245 173 204 114 128 147 159 169 145 115 123 127 116 138 141 180 128 138 146 154 164 145 150 162 163 162 180 232 122 240 291 187 295 174 73 91 35 198 130 188 194
276 18 17 117 135 154 154 128 251 121 79 129 154 159 151 138 139 120 115 138 144 127 130 129 107 141 152 155 147 161 163 155 167 180 147 199 77 240 251 190 237 82 76 75 269 11 283 266 185
292 262 177 118 135 185 194 177 209 111 325 165 184 180 133 144 138 152 146 142 127 141 123 105 125 137 143 131 150 186 176 166 150 145 178 172 234 237 279 232 165 115 125 149 221 283 238 233 144
234 265 121 118 151 148 234 255 173 175 205 194 210 172 153 152 161 153 149 156 145 118 128 162 120 139 157 131 133 140 40 145 139 141 161 100 239 266 247 233 93 104 161 178 197 213 230 191 90
254 186 58 140 162 148 226 273 157 183 188 211 195 246 169 193 157 166 144 168 146 129 146 134 123 136 151 135 140 134 109 160 141 148 208 183 238 210 272 302 102 241 159 87 267 100 338 129 192
234 325 47 70 146 211 219 247 150 178 194 202 184 224 210 169 190 164 160 162 156 144 151 141 140 133 139 120 136 138 158 204 169 174 171 218 225 190 273 77 127 246 125 124 51 8 64 50 332
331 281 298 75 92 254 239 248 198 170 191 203 204 217 217 193 151 182 168 166 155 154 159 157 136 145 162 130 165 178 188 136 207 212 170 205 243 185 244 209 181 258 74 55 59 176 86 110 190
268 272 261 157 193 244 256 248 217 177 202 195 204 212 216 186 176 169 204 169 165 162 165 169 157 164 191 163 172 167 192 205 205 187 181 212 221 214 239 310 289 35 107 100 71 12 360 99 42
243 263 280 317 284 238 263 250 223 200 190 196 201 210 208 213 181 186 185 175 177 167 171 175 171 171 210 180 140 190 215 6 187 180 175 198 214 198 244 259 7 73 294 122 201 52 343 112 108
252 16 356 287 270 229 240 275 246 164 192 197 192 203 216 202 190 192 181 182 181 170 173 169 180 179 193 201 169 208 213 189 177 180 180 179 212 212 203 187 226 236 310 53 173 153 336 300 74
257 67 274 280 276 276 259 277 152 243 185 196 203 196 206 207 205 183 181 186 185 172 173 168 177 181 191 197 188 195 233 333 206 193 130 172 177 229 240 183 200 220 251 134 318 213 278 275 317
230 268 245 246 254 265 200 239 109 239 203 179 185 199 198 188 206 211 182 176 185 173 177 167 175 182 190 186 194 209 229 227 307 199 158 196 190 187 213 222 211 228 266 225 243 243 230 305 341
223 236 238 225 231 320 167 246 173 186 202 180 190 187 196 187 185 205 181 190 184 175 182 168 172 184 191 185 192 203 227 225 196 267 219 238 212 196 157 191 224 224 219 267 247 220 294 229 276
219 237 255 274 270 347 353 268 125 320 59 158 187 200 185 188 190 194 184 191 171 179 183 181 167 184 188 191 194 188 209 218 236 209 261 231 255 237 137 173 224 217 258 220 222 237 228 222 215
209 215 260 288 284 263 275 202 91 44 321 161 169 143 197 180 188 192 178 162 177 193 184 188 166 183 191 196 192 189 199 233 214 212 233 226 264 252 153 185 204 236 218 235 238 228 246 248 216
245 252 225 232 264 278 256 224 97 161 210 160 166 168 169 184 188 184 177 170 188 187 189 189 174 185 192 200 190 207 193 211 234 231 235 266 279 280 292 225 229 228 234 225 220 256 206 224 254
207 240 254 276 267 303 242 97 102 310 57 164 175 130 169 187 188 186 182 173 188 176 195 181 180 181 194 201 187 213 207 203 209 222 212 222 238 244 247 249 249 249 239 247 256 257 291 205 229
244 217 232 241 235 265 302 308 157 244 155 180 129 122 156 180 180 188 185 174 174 178 178 186 166 186 195 205 193 199 218 206 201 214 225 212 221 194 219 239 226 238 240 228 215 233 258 216 245